Flag for Morocco Weather past 2 weeks in Marrakech, Morocco

Now
61 °F

Passing clouds.


Feels Like: 61 °F
Forecast: 58 / 84 °F
Wind: 6 mph from Southwest

Location: Marrakech Airport

Current Time: May 28, 2015 at 7:46:38 AM

Latest Report: May 28, 2015 at 7:00 AM


Visibility: N/A

Pressure: 29.95 "Hg

Humidity: 100%

Dew point: 61 °F

Location of MarrakechLocation

Historic Weather in Marrakech — Graph

°F

Marrakech temperature yesterday

Maximum temperature yesterday: 91 °F (at 3:00 PM)
Minimum temperature yesterday: 63 °F (at 6:00 AM)
Average temperature yesterday: 76 °F

Past Weeks' High & Low Weather Summary

 TemperatureHumidityPressure
High108 °F (May 13, 3:00 PM)100% (May 18, 5:30 AM)30.15 "Hg (May 18, 5:30 AM)
Low59 °F (May 18, 5:30 AM)7% (May 13, 2:30 PM)29.83 "Hg (May 27, 4:30 PM)
Average74 °F54%30.00 "Hg
* Reported May 13 7:00 AM — May 28 7:00 AM, Marrakech, Weather by CustomWeather, © 2015

Note: Actual official high and low records may vary slightly from our data, if they occured in-between our weather recording intervals... More about our weather records

Advertising

Marrakech weather history for previous 24 hours

 ConditionsComfort  
Time TempWeatherWind HumidityBarometerVisibility
7:00 AM
Thu, May 28
61 °FPassing clouds.6 mph100%29.95 "HgN/A
6:30 AM61 °FPassing clouds.6 mph100%29.95 "HgN/A
6:00 AM61 °FPassing clouds.7 mph100%29.95 "HgN/A
5:30 AM61 °FPassing clouds.7 mph94%29.92 "HgN/A
5:00 AM63 °FPassing clouds.6 mph94%29.92 "HgN/A
4:30 AM63 °FPassing clouds.6 mph94%29.95 "HgN/A
4:00 AM63 °FPassing clouds.7 mph94%29.95 "HgN/A
3:30 AM63 °FPassing clouds.7 mph94%29.92 "HgN/A
3:00 AM63 °FPassing clouds.8 mph94%29.95 "HgN/A
2:30 AM63 °FPassing clouds.8 mph94%29.95 "HgN/A
2:00 AM64 °FPassing clouds.7 mph88%29.95 "HgN/A
1:30 AM64 °FPassing clouds.6 mph88%29.95 "HgN/A
1:00 AM66 °FPassing clouds.8 mph83%29.95 "HgN/A
12:30 AM66 °FPassing clouds.7 mph83%29.95 "HgN/A
12:00 AM66 °FPassing clouds.7 mph83%29.95 "HgN/A
11:30 PM
Wed, May 27
66 °FPassing clouds.7 mph83%29.95 "HgN/A
11:00 PM68 °FPassing clouds.9 mph78%29.95 "HgN/A
10:00 PM72 °FPassing clouds.12 mph69%29.95 "HgN/A
9:30 PM73 °FPassing clouds.10 mph65%29.92 "HgN/A
9:00 PM73 °FPassing clouds.8 mph65%29.92 "HgN/A
8:30 PM75 °FPassing clouds.12 mph61%29.89 "HgN/A
8:00 PM77 °FPartly sunny.16 mph57%29.89 "HgN/A
7:30 PM79 °FPartly sunny.16 mph58%29.86 "HgN/A
7:00 PM82 °FPartly sunny.20 mph51%29.83 "HgN/A
6:30 PM84 °FPartly sunny.22 mph45%29.83 "HgN/A
6:00 PM90 °FPartly sunny.18 mph33%29.83 "HgN/A
5:30 PM91 °FPartly sunny.9 mph28%29.83 "HgN/A
5:00 PM91 °FPartly sunny.10 mph26%29.83 "HgN/A
4:30 PM91 °FPartly sunny.6 mph28%29.83 "HgN/A
4:00 PM91 °FPartly sunny.2 mph26%29.86 "HgN/A
3:30 PM91 °FPartly sunny.5 mph26%29.86 "HgN/A
3:00 PM91 °FPassing clouds.7 mph26%29.86 "HgN/A
2:30 PM88 °FPassing clouds.2 mph33%29.86 "HgN/A
2:00 PM86 °FPassing clouds.3 mph38%29.89 "HgN/A
1:30 PM82 °FPassing clouds.2 mph48%29.92 "HgN/A
1:00 PM82 °FPassing clouds.5 mph48%29.92 "HgN/A
12:30 PM81 °FPassing clouds.7 mph48%29.92 "HgN/A
12:00 PM79 °FPassing clouds.3 mph51%29.95 "HgN/A
11:30 AM77 °FPassing clouds.3 mph54%29.95 "HgN/A
11:00 AM77 °FPassing clouds.3 mph57%29.95 "HgN/A
10:30 AM73 °FPassing clouds.5 mph65%29.95 "HgN/A
10:00 AM73 °FPassing clouds.3 mph65%29.95 "HgN/A
9:30 AM72 °FPassing clouds.5 mph69%29.95 "HgN/A
9:00 AM68 °FPassing clouds.5 mph78%29.95 "HgN/A
8:00 AMN/APassing clouds.2 mphN/A29.95 "HgN/A
7:30 AMN/APassing clouds.No windN/A29.95 "HgN/A
7:00 AM63 °FPassing clouds.No wind88%29.95 "HgN/A
Weather by CustomWeather, © 2015

See weather overviewHow to use our weather pages